Location: Bédeille
(43.0872°N, 1.1041°E)
Time: 03:27:11
(UTC+00:00)

NOAA 6 - Pass Details

Date: 03 February 2023
Orbit: 770 x 786 km, 98.7° (Epoch: 27 March)

Event Time Altitude Azimuth Distance (km) Brightness Sun altitude
Rises 17:44:26 0° 164° (SSE) 3,245 7.3 -6.7°
Reaches altitude 10° 17:46:44 10° 164° (SSE) 2,324 6.5 -7.1°
Maximum altitude 17:51:53 90° 69° (ENE) 788 4.1 -8.0°
Drops below altitude 10° 17:57:05 10° 346° (NNW) 2,351 6.5 -9.0°
Sets 17:59:25 0° 347° (NNW) 3,286 7.3 -9.4°
